Time,TemperatureF,DewpointF,PressureIn,WindDirection,WindDirectionDegrees,WindSpeedMPH,WindSpeedGustMPH,Humidity,HourlyPrecipIn,Conditions,Clouds,dailyrainin,SolarRadiationWatts/m^2,SoftwareType,DateUTC
2013-01-12 00:04:00,42.3,41.5,30.11,ESE,122,0.0,6.0,97,0.00,,,0.00,0,Wunderground v.1.15,2013-01-12 05:04:00,
2013-01-12 00:08:00,42.3,41.5,30.11,ESE,122,0.0,6.0,97,0.00,,,0.00,0,Wunderground v.1.15,2013-01-12 05:08:00,
2013-01-12 00:14:00,42.3,41.5,30.11,ESE,122,0.0,6.0,97,0.00,,,0.00,0,Wunderground v.1.15,2013-01-12 05:14:00,
2013-01-12 00:23:00,42.4,41.6,30.11,ESE,122,0.0,6.0,97,0.00,,,0.00,0,Wunderground v.1.15,2013-01-12 05:23:00,
2013-01-12 00:29:00,42.4,41.6,30.11,ESE,122,0.0,6.0,97,0.00,,,0.00,0,Wunderground v.1.15,2013-01-12 05:29:00,
2013-01-12 00:39:00,42.4,41.9,30.10,ESE,122,0.0,6.0,98,0.00,,,0.01,0,Wunderground v.1.15,2013-01-12 05:39:00,
2013-01-12 00:48:00,42.4,41.9,30.11,ESE,122,0.0,6.0,98,0.00,,,0.01,0,Wunderground v.1.15,2013-01-12 05:48:00,
2013-01-12 00:54:00,42.4,41.9,30.11,ESE,122,0.0,6.0,98,0.00,,,0.01,0,Wunderground v.1.15,2013-01-12 05:54:00,
2013-01-12 01:04:00,42.4,41.9,30.11,ESE,122,0.0,6.0,98,0.00,,,0.01,0,Wunderground v.1.15,2013-01-12 06:04:00,
2013-01-12 01:14:00,42.5,42.0,30.11,SE,126,0.0,6.0,98,0.00,,,0.01,0,Wunderground v.1.15,2013-01-12 06:14:00,
2013-01-12 01:24:00,42.6,42.1,30.11,SE,126,0.0,6.0,98,0.00,,,0.01,0,Wunderground v.1.15,2013-01-12 06:24:00,
2013-01-12 01:29:00,42.7,42.2,30.11,SE,126,0.0,6.0,98,0.00,,,0.01,0,Wunderground v.1.15,2013-01-12 06:29:00,
2013-01-12 01:38:00,42.6,42.1,30.11,SE,126,0.0,6.0,98,0.00,,,0.01,0,Wunderground v.1.15,2013-01-12 06:38:00,
2013-01-12 01:44:00,42.6,42.1,30.11,SE,126,0.0,6.0,98,0.00,,,0.01,0,Wunderground v.1.15,2013-01-12 06:44:00,
2013-01-12 01:54:00,42.5,42.0,30.12,SE,126,0.0,6.0,98,0.00,,,0.01,0,Wunderground v.1.15,2013-01-12 06:54:00,
2013-01-12 02:04:00,42.4,41.9,30.12,SE,126,0.0,6.0,98,0.00,,,0.01,0,Wunderground v.1.15,2013-01-12 07:04:00,
2013-01-12 02:14:00,42.4,41.9,30.12,SE,126,0.0,6.0,98,0.00,,,0.01,0,Wunderground v.1.15,2013-01-12 07:14:00,
2013-01-12 02:24:00,42.6,42.1,30.13,SE,126,0.0,6.0,98,0.00,,,0.01,0,Wunderground v.1.15,2013-01-12 07:24:00,
2013-01-12 02:34:00,42.5,42.0,30.13,SE,126,0.0,6.0,98,0.00,,,0.01,0,Wunderground v.1.15,2013-01-12 07:34:00,
2013-01-12 02:43:00,42.5,42.0,30.12,ESE,102,0.0,6.0,98,0.00,,,0.01,0,Wunderground v.1.15,2013-01-12 07:43:00,
2013-01-12 02:49:00,42.7,42.2,30.12,SW,214,0.0,6.0,98,0.00,,,0.01,0,Wunderground v.1.15,2013-01-12 07:49:00,
2013-01-12 02:58:00,42.6,42.1,30.12,SW,214,0.0,6.0,98,0.00,,,0.01,0,Wunderground v.1.15,2013-01-12 07:58:00,
2013-01-12 03:04:00,42.5,42.0,30.13,SW,214,0.0,6.0,98,0.00,,,0.01,0,Wunderground v.1.15,2013-01-12 08:04:00,
2013-01-12 03:09:00,42.5,42.0,30.13,SW,214,0.0,6.0,98,0.00,,,0.01,0,Wunderground v.1.15,2013-01-12 08:09:00,
2013-01-12 03:19:00,42.4,41.6,30.12,SW,214,0.0,6.0,97,0.00,,,0.01,0,Wunderground v.1.15,2013-01-12 08:19:00,
2013-01-12 03:28:00,42.2,41.4,30.11,West,267,0.0,6.0,97,0.00,,,0.01,0,Wunderground v.1.15,2013-01-12 08:28:00,
2013-01-12 03:34:00,42.2,41.7,30.11,NE,40,0.0,6.0,98,0.00,,,0.01,0,Wunderground v.1.15,2013-01-12 08:34:00,
2013-01-12 03:44:00,42.3,41.8,30.12,NE,40,0.0,6.0,98,0.00,,,0.01,0,Wunderground v.1.15,2013-01-12 08:44:00,
2013-01-12 03:54:00,42.3,41.8,30.12,NE,40,0.0,6.0,98,0.00,,,0.01,0,Wunderground v.1.15,2013-01-12 08:54:00,
2013-01-12 04:04:00,42.3,41.8,30.11,NE,40,0.0,6.0,98,0.00,,,0.01,0,Wunderground v.1.15,2013-01-12 09:04:00,
2013-01-12 04:09:00,42.3,41.8,30.11,NE,40,0.0,6.0,98,0.00,,,0.01,0,Wunderground v.1.15,2013-01-12 09:09:00,
2013-01-12 04:19:00,42.2,41.7,30.11,NE,40,0.0,6.0,98,0.00,,,0.01,0,Wunderground v.1.15,2013-01-12 09:19:00,
2013-01-12 04:24:00,42.2,41.7,30.11,NE,40,0.0,6.0,98,0.00,,,0.01,0,Wunderground v.1.15,2013-01-12 09:24:00,
2013-01-12 04:33:00,42.2,41.7,30.11,NE,40,0.0,6.0,98,0.00,,,0.01,0,Wunderground v.1.15,2013-01-12 09:33:00,
2013-01-12 04:44:00,42.4,41.9,30.11,WSW,254,1.0,6.0,98,0.00,,,0.01,0,Wunderground v.1.15,2013-01-12 09:44:00,
2013-01-12 04:54:00,42.4,41.9,30.12,WSW,254,0.0,6.0,98,0.00,,,0.01,0,Wunderground v.1.15,2013-01-12 09:54:00,
2013-01-12 05:04:00,42.3,41.8,30.12,WSW,254,0.0,6.0,98,0.00,,,0.01,0,Wunderground v.1.15,2013-01-12 10:04:00,
2013-01-12 05:14:00,42.2,41.7,30.12,WSW,254,0.0,6.0,98,0.00,,,0.01,0,Wunderground v.1.15,2013-01-12 10:14:00,
2013-01-12 05:24:00,42.2,41.7,30.11,WSW,254,0.0,6.0,98,0.00,,,0.01,0,Wunderground v.1.15,2013-01-12 10:24:00,
2013-01-12 05:33:00,42.1,41.6,30.11,WSW,254,0.0,6.0,98,0.00,,,0.01,0,Wunderground v.1.15,2013-01-12 10:33:00,
2013-01-12 05:39:00,42.3,41.8,30.12,WSW,254,0.0,6.0,98,0.00,,,0.01,0,Wunderground v.1.15,2013-01-12 10:39:00,
2013-01-12 05:54:00,42.4,41.9,30.12,West,276,1.0,6.0,98,0.00,,,0.01,0,Wunderground v.1.15,2013-01-12 10:54:00,
2013-01-12 05:59:00,42.4,41.9,30.12,WNW,290,1.0,6.0,98,0.00,,,0.01,0,Wunderground v.1.15,2013-01-12 10:59:00,
2013-01-12 06:09:00,42.5,42.0,30.13,WNW,285,1.0,6.0,98,0.00,,,0.01,0,Wunderground v.1.15,2013-01-12 11:09:00,
2013-01-12 06:19:00,42.4,41.9,30.13,WNW,290,2.0,2.0,98,0.00,,,0.01,0,Wunderground v.1.15,2013-01-12 11:19:00,
2013-01-12 06:29:00,42.4,41.9,30.14,WSW,254,2.0,6.0,98,0.00,,,0.01,0,Wunderground v.1.15,2013-01-12 11:29:00,
2013-01-12 06:38:00,42.4,41.9,30.14,WSW,253,2.0,6.0,98,0.00,,,0.01,0,Wunderground v.1.15,2013-01-12 11:38:00,
2013-01-12 06:44:00,42.4,41.9,30.14,West,265,2.0,6.0,98,0.00,,,0.01,0,Wunderground v.1.15,2013-01-12 11:44:00,
2013-01-12 06:54:00,42.3,41.8,30.14,West,265,0.0,6.0,98,0.00,,,0.01,0,Wunderground v.1.15,2013-01-12 11:54:00,
2013-01-12 07:04:00,42.3,41.8,30.15,West,265,2.0,6.0,98,0.00,,,0.01,0,Wunderground v.1.15,2013-01-12 12:04:00,
2013-01-12 07:14:00,42.3,41.8,30.16,West,276,0.0,6.0,98,0.00,,,0.01,0,Wunderground v.1.15,2013-01-12 12:14:00,
2013-01-12 07:19:00,42.2,41.7,30.16,West,276,0.0,6.0,98,0.00,,,0.01,0,Wunderground v.1.15,2013-01-12 12:19:00,
2013-01-12 07:29:00,42.1,41.6,30.16,West,277,1.0,1.0,98,0.00,,,0.01,0,Wunderground v.1.15,2013-01-12 12:29:00,
2013-01-12 07:34:00,42.1,41.6,30.17,West,277,1.0,6.0,98,0.00,,,0.01,0,Wunderground v.1.15,2013-01-12 12:34:00,
2013-01-12 07:44:00,42.0,41.5,30.17,West,279,0.0,6.0,98,0.00,,,0.01,9,Wunderground v.1.15,2013-01-12 12:44:00,
2013-01-12 07:54:00,41.9,41.4,30.17,West,279,0.0,6.0,98,0.00,,,0.01,9,Wunderground v.1.15,2013-01-12 12:54:00,
2013-01-12 07:59:00,41.8,41.3,30.17,West,279,0.0,6.0,98,0.00,,,0.01,11,Wunderground v.1.15,2013-01-12 12:59:00,
2013-01-12 08:08:00,41.8,41.3,30.18,West,279,1.0,1.0,98,0.00,,,0.01,12,Wunderground v.1.15,2013-01-12 13:08:00,
2013-01-12 08:14:00,41.8,41.3,30.17,West,279,0.0,6.0,98,0.00,,,0.01,14,Wunderground v.1.15,2013-01-12 13:14:00,
2013-01-12 08:24:00,41.8,41.3,30.17,West,279,0.0,6.0,98,0.00,,,0.01,23,Wunderground v.1.15,2013-01-12 13:24:00,
2013-01-12 08:29:00,41.9,41.4,30.18,West,279,0.0,6.0,98,0.00,,,0.01,33,Wunderground v.1.15,2013-01-12 13:29:00,
2013-01-12 08:38:00,42.0,41.5,30.18,West,279,0.0,6.0,98,0.00,,,0.01,39,Wunderground v.1.15,2013-01-12 13:38:00,
2013-01-12 08:44:00,42.0,41.5,30.19,West,279,0.0,6.0,98,0.00,,,0.01,39,Wunderground v.1.15,2013-01-12 13:44:00,
2013-01-12 08:54:00,42.2,41.7,30.19,West,279,0.0,6.0,98,0.00,,,0.01,37,Wunderground v.1.15,2013-01-12 13:54:00,
2013-01-12 09:04:00,42.3,41.8,30.19,West,279,0.0,6.0,98,0.00,,,0.01,42,Wunderground v.1.15,2013-01-12 14:04:00,
2013-01-12 09:13:00,42.4,41.9,30.19,West,279,0.0,6.0,98,0.00,,,0.01,72,Wunderground v.1.15,2013-01-12 14:13:00,
2013-01-12 09:19:00,42.5,42.0,30.19,West,279,1.0,1.0,98,0.00,,,0.01,81,Wunderground v.1.15,2013-01-12 14:19:00,
2013-01-12 09:29:00,42.6,42.1,30.19,West,281,1.0,6.0,98,0.00,,,0.01,62,Wunderground v.1.15,2013-01-12 14:29:00,
2013-01-12 09:39:00,42.5,42.0,30.19,West,269,1.0,6.0,98,0.00,,,0.01,118,Wunderground v.1.15,2013-01-12 14:39:00,
2013-01-12 09:49:00,42.6,42.1,30.18,West,273,1.0,1.0,98,0.00,,,0.01,84,Wunderground v.1.15,2013-01-12 14:49:00,
2013-01-12 09:54:00,42.8,42.3,30.18,West,273,1.0,6.0,98,0.00,,,0.01,84,Wunderground v.1.15,2013-01-12 14:54:00,
2013-01-12 10:04:00,43.0,42.5,30.18,West,273,0.0,6.0,98,0.00,,,0.01,93,Wunderground v.1.15,2013-01-12 15:04:00,
2013-01-12 10:14:00,43.3,42.8,30.17,West,279,0.0,6.0,98,0.00,,,0.01,100,Wunderground v.1.15,2013-01-12 15:14:00,
2013-01-12 10:24:00,43.6,43.1,30.17,NNE,28,0.0,6.0,98,0.00,,,0.01,171,Wunderground v.1.15,2013-01-12 15:24:00,
2013-01-12 10:33:00,43.9,43.4,30.17,NNW,336,1.0,6.0,98,0.00,,,0.01,125,Wunderground v.1.15,2013-01-12 15:33:00,
2013-01-12 10:39:00,43.9,43.4,30.17,NW,311,1.0,1.0,98,0.00,,,0.01,135,Wunderground v.1.15,2013-01-12 15:39:00,
2013-01-12 10:44:00,44.0,43.5,30.17,NW,311,1.0,6.0,98,0.00,,,0.01,139,Wunderground v.1.15,2013-01-12 15:44:00,
2013-01-12 10:54:00,44.1,43.6,30.18,WNW,287,1.0,2.0,98,0.00,,,0.01,74,Wunderground v.1.15,2013-01-12 15:54:00,
2013-01-12 11:04:00,44.0,43.5,30.18,WNW,286,1.0,6.0,98,0.00,,,0.01,76,Wunderground v.1.15,2013-01-12 16:04:00,
2013-01-12 11:14:00,44.0,43.5,30.18,WNW,298,1.0,6.0,98,0.00,,,0.01,49,Wunderground v.1.15,2013-01-12 16:14:00,
2013-01-12 11:19:00,44.1,43.6,30.18,NW,307,1.0,1.0,98,0.00,,,0.01,56,Wunderground v.1.15,2013-01-12 16:19:00,
2013-01-12 11:29:00,44.1,43.6,30.17,WNW,286,1.0,1.0,98,0.00,,,0.01,114,Wunderground v.1.15,2013-01-12 16:29:00,
2013-01-12 11:39:00,44.2,43.7,30.17,WNW,292,2.0,6.0,98,0.00,,,0.01,125,Wunderground v.1.15,2013-01-12 16:39:00,
2013-01-12 11:49:00,44.5,43.7,30.16,WNW,283,1.0,1.0,97,0.00,,,0.01,139,Wunderground v.1.15,2013-01-12 16:49:00,
2013-01-12 11:59:00,44.7,43.9,30.16,WNW,289,1.0,6.0,97,0.00,,,0.01,137,Wunderground v.1.15,2013-01-12 16:59:00,
2013-01-12 12:09:00,44.8,44.0,30.16,NW,326,1.0,6.0,97,0.00,,,0.01,176,Wunderground v.1.15,2013-01-12 17:09:00,
2013-01-12 12:19:00,45.0,44.2,30.15,North,5,1.0,1.0,97,0.00,,,0.01,120,Wunderground v.1.15,2013-01-12 17:19:00,
2013-01-12 12:29:00,45.1,44.0,30.15,NNE,19,0.0,6.0,96,0.00,,,0.01,125,Wunderground v.1.15,2013-01-12 17:29:00,
2013-01-12 12:38:00,45.2,44.1,30.16,WNW,294,1.0,1.0,96,0.00,,,0.01,86,Wunderground v.1.15,2013-01-12 17:38:00,
2013-01-12 12:44:00,45.2,44.1,30.16,WNW,294,1.0,6.0,96,0.00,,,0.01,95,Wunderground v.1.15,2013-01-12 17:44:00,
2013-01-12 12:54:00,45.5,44.2,30.16,WNW,294,0.0,6.0,95,0.00,,,0.01,113,Wunderground v.1.15,2013-01-12 17:54:00,
2013-01-12 13:04:00,45.8,44.7,30.16,WNW,294,0.0,6.0,96,0.00,,,0.01,137,Wunderground v.1.15,2013-01-12 18:04:00,
2013-01-12 13:14:00,46.1,44.7,30.16,WNW,294,0.0,6.0,95,0.00,,,0.01,123,Wunderground v.1.15,2013-01-12 18:14:00,
2013-01-12 13:24:00,46.4,45.0,30.16,NNW,338,0.0,6.0,95,0.00,,,0.01,146,Wunderground v.1.15,2013-01-12 18:24:00,
2013-01-12 13:34:00,46.8,45.2,30.16,NNW,338,0.0,6.0,94,0.00,,,0.01,162,Wunderground v.1.15,2013-01-12 18:34:00,
2013-01-12 13:44:00,47.2,45.3,30.16,NNW,338,0.0,6.0,93,0.00,,,0.01,105,Wunderground v.1.15,2013-01-12 18:44:00,
2013-01-12 13:54:00,47.5,45.6,30.16,NNW,338,0.0,6.0,93,0.00,,,0.01,120,Wunderground v.1.15,2013-01-12 18:54:00,
2013-01-12 13:59:00,47.6,45.7,30.16,NNW,338,0.0,6.0,93,0.00,,,0.01,125,Wunderground v.1.15,2013-01-12 18:59:00,
2013-01-12 14:08:00,47.6,45.1,30.16,North,5,0.0,6.0,91,0.00,,,0.01,127,Wunderground v.1.15,2013-01-12 19:08:00,
2013-01-12 14:14:00,47.6,45.4,30.15,North,5,0.0,6.0,92,0.00,,,0.01,137,Wunderground v.1.15,2013-01-12 19:14:00,
2013-01-12 14:24:00,47.8,45.6,30.15,East,95,0.0,6.0,92,0.00,,,0.01,65,Wunderground v.1.15,2013-01-12 19:24:00,
2013-01-12 14:34:00,47.8,45.6,30.15,SE,144,1.0,2.0,92,0.00,,,0.01,98,Wunderground v.1.15,2013-01-12 19:34:00,
2013-01-12 14:44:00,47.7,45.2,30.14,SE,136,1.0,6.0,91,0.00,,,0.01,63,Wunderground v.1.15,2013-01-12 19:44:00,
2013-01-12 14:49:00,47.7,45.5,30.15,SE,136,0.0,6.0,92,0.00,,,0.01,69,Wunderground v.1.15,2013-01-12 19:49:00,
2013-01-12 14:59:00,47.7,45.5,30.15,SE,136,0.0,6.0,92,0.00,,,0.01,84,Wunderground v.1.15,2013-01-12 19:59:00,
2013-01-12 15:09:00,47.7,45.2,30.15,North,360,0.0,6.0,91,0.00,,,0.01,67,Wunderground v.1.15,2013-01-12 20:09:00,
2013-01-12 15:19:00,47.6,45.1,30.15,NNE,32,0.0,6.0,91,0.00,,,0.01,65,Wunderground v.1.15,2013-01-12 20:19:00,
2013-01-12 15:24:00,47.6,45.4,30.15,NNE,32,0.0,6.0,92,0.00,,,0.01,74,Wunderground v.1.15,2013-01-12 20:24:00,
2013-01-12 15:34:00,47.4,45.2,30.14,ESE,113,1.0,6.0,92,0.00,,,0.01,32,Wunderground v.1.15,2013-01-12 20:34:00,
2013-01-12 15:39:00,47.3,45.1,30.15,ESE,113,1.0,1.0,92,0.00,,,0.01,33,Wunderground v.1.15,2013-01-12 20:39:00,
2013-01-12 15:49:00,47.1,44.9,30.16,ESE,113,0.0,6.0,92,0.00,,,0.01,42,Wunderground v.1.15,2013-01-12 20:49:00,
2013-01-12 15:54:00,47.0,44.8,30.15,ESE,113,0.0,6.0,92,0.00,,,0.01,42,Wunderground v.1.15,2013-01-12 20:54:00,
2013-01-12 16:04:00,47.0,45.1,30.15,ESE,113,0.0,6.0,93,0.00,,,0.01,32,Wunderground v.1.15,2013-01-12 21:04:00,
2013-01-12 16:14:00,46.9,45.0,30.16,East,101,0.0,6.0,93,0.00,,,0.01,21,Wunderground v.1.15,2013-01-12 21:14:00,
2013-01-12 16:24:00,46.8,44.6,30.16,East,94,0.0,6.0,92,0.00,,,0.01,18,Wunderground v.1.15,2013-01-12 21:24:00,
2013-01-12 16:34:00,46.8,44.9,30.16,NE,45,0.0,6.0,93,0.00,,,0.01,18,Wunderground v.1.15,2013-01-12 21:34:00,
2013-01-12 16:44:00,46.6,44.7,30.16,East,88,0.0,6.0,93,0.00,,,0.01,7,Wunderground v.1.15,2013-01-12 21:44:00,
2013-01-12 16:54:00,46.3,44.4,30.16,East,88,0.0,6.0,93,0.00,,,0.01,0,Wunderground v.1.15,2013-01-12 21:54:00,
2013-01-12 16:59:00,46.3,44.4,30.17,East,88,0.0,6.0,93,0.00,,,0.01,0,Wunderground v.1.15,2013-01-12 21:59:00,
2013-01-12 17:09:00,46.1,44.5,30.17,East,88,0.0,6.0,94,0.00,,,0.01,0,Wunderground v.1.15,2013-01-12 22:09:00,
2013-01-12 17:19:00,45.9,44.3,30.17,East,88,0.0,6.0,94,0.00,,,0.01,0,Wunderground v.1.15,2013-01-12 22:19:00,
2013-01-12 17:24:00,45.9,44.3,30.18,East,88,0.0,6.0,94,0.00,,,0.01,0,Wunderground v.1.15,2013-01-12 22:24:00,
2013-01-12 17:34:00,45.8,44.2,30.18,East,88,0.0,6.0,94,0.00,,,0.01,0,Wunderground v.1.15,2013-01-12 22:34:00,
2013-01-12 17:39:00,45.7,44.1,30.19,NE,55,0.0,6.0,94,0.00,,,0.01,0,Wunderground v.1.15,2013-01-12 22:39:00,
2013-01-12 17:49:00,45.6,44.0,30.19,NE,55,0.0,6.0,94,0.00,,,0.01,0,Wunderground v.1.15,2013-01-12 22:49:00,
2013-01-12 17:54:00,45.6,44.3,30.19,NE,55,0.0,6.0,95,0.00,,,0.01,0,Wunderground v.1.15,2013-01-12 22:54:00,
2013-01-12 18:04:00,45.4,44.1,30.18,NE,55,0.0,6.0,95,0.00,,,0.01,0,Wunderground v.1.15,2013-01-12 23:04:00,
2013-01-12 18:14:00,45.3,44.0,30.17,NE,55,0.0,6.0,95,0.00,,,0.01,0,Wunderground v.1.15,2013-01-12 23:14:00,
2013-01-12 18:24:00,45.1,43.8,30.18,ENE,78,0.0,6.0,95,0.00,,,0.01,0,Wunderground v.1.15,2013-01-12 23:24:00,
2013-01-12 18:34:00,45.1,43.8,30.18,ESE,109,0.0,6.0,95,0.00,,,0.01,0,Wunderground v.1.15,2013-01-12 23:34:00,
2013-01-12 18:39:00,45.1,44.0,30.19,ESE,109,0.0,6.0,96,0.00,,,0.01,0,Wunderground v.1.15,2013-01-12 23:39:00,
2013-01-12 18:49:00,45.0,43.7,30.17,ESE,109,0.0,6.0,95,0.00,,,0.01,0,Wunderground v.1.15,2013-01-12 23:49:00,
2013-01-12 18:54:00,44.9,43.8,30.17,ESE,113,0.0,6.0,96,0.00,,,0.01,0,Wunderground v.1.15,2013-01-12 23:54:00,
2013-01-12 19:03:00,44.9,43.8,30.18,ESE,113,0.0,6.0,96,0.00,,,0.01,0,Wunderground v.1.15,2013-01-13 00:03:00,
2013-01-12 19:09:00,44.9,43.8,30.18,ESE,113,0.0,6.0,96,0.00,,,0.01,0,Wunderground v.1.15,2013-01-13 00:09:00,
2013-01-12 19:14:00,44.8,43.7,30.18,ESE,113,0.0,6.0,96,0.00,,,0.01,0,Wunderground v.1.15,2013-01-13 00:14:00,
2013-01-12 19:24:00,44.7,43.6,30.18,ESE,113,0.0,6.0,96,0.00,,,0.01,0,Wunderground v.1.15,2013-01-13 00:24:00,
2013-01-12 19:29:00,44.6,43.5,30.19,ESE,113,0.0,6.0,96,0.00,,,0.01,0,Wunderground v.1.15,2013-01-13 00:29:00,
2013-01-12 19:39:00,44.5,43.4,30.19,ESE,113,0.0,6.0,96,0.00,,,0.01,0,Wunderground v.1.15,2013-01-13 00:39:00,
2013-01-12 19:44:00,44.5,43.4,30.19,ESE,113,0.0,6.0,96,0.00,,,0.01,0,Wunderground v.1.15,2013-01-13 00:44:00,
2013-01-12 19:54:00,44.5,43.4,30.18,ESE,113,0.0,6.0,96,0.00,,,0.01,0,Wunderground v.1.15,2013-01-13 00:54:00,
2013-01-12 20:04:00,44.4,43.6,30.19,ESE,113,0.0,6.0,97,0.00,,,0.01,0,Wunderground v.1.15,2013-01-13 01:04:00,
2013-01-12 20:09:00,44.4,43.6,30.19,ESE,113,0.0,6.0,97,0.00,,,0.01,0,Wunderground v.1.15,2013-01-13 01:09:00,
2013-01-12 20:14:00,44.4,43.6,30.18,ESE,113,0.0,6.0,97,0.00,,,0.01,0,Wunderground v.1.15,2013-01-13 01:14:00,
2013-01-12 20:24:00,44.3,43.2,30.17,ESE,113,0.0,6.0,96,0.00,,,0.01,0,Wunderground v.1.15,2013-01-13 01:24:00,
2013-01-12 20:34:00,44.2,43.1,30.16,ESE,113,0.0,6.0,96,0.00,,,0.01,0,Wunderground v.1.15,2013-01-13 01:34:00,
2013-01-12 20:49:00,44.1,43.3,30.16,ESE,113,0.0,6.0,97,0.00,,,0.01,0,Wunderground v.1.15,2013-01-13 01:49:00,
2013-01-12 20:54:00,44.2,43.4,30.16,ESE,113,0.0,6.0,97,0.00,,,0.01,0,Wunderground v.1.15,2013-01-13 01:54:00,
2013-01-12 21:04:00,44.2,43.4,30.15,ESE,113,0.0,6.0,97,0.00,,,0.01,0,Wunderground v.1.15,2013-01-13 02:04:00,
2013-01-12 21:14:00,44.1,43.3,30.16,ESE,113,0.0,6.0,97,0.00,,,0.01,0,Wunderground v.1.15,2013-01-13 02:14:00,
2013-01-12 21:24:00,44.0,43.2,30.15,ESE,113,0.0,6.0,97,0.00,,,0.01,0,Wunderground v.1.15,2013-01-13 02:24:00,
2013-01-12 21:29:00,44.0,43.2,30.15,ESE,113,0.0,6.0,97,0.00,,,0.01,0,Wunderground v.1.15,2013-01-13 02:29:00,
2013-01-12 21:39:00,44.0,43.2,30.15,ESE,113,0.0,6.0,97,0.00,,,0.01,0,Wunderground v.1.15,2013-01-13 02:39:00,
2013-01-12 21:44:00,44.0,43.2,30.15,ESE,113,1.0,6.0,97,0.00,,,0.01,0,Wunderground v.1.15,2013-01-13 02:44:00,
2013-01-12 21:54:00,43.9,43.1,30.15,ESE,113,0.0,6.0,97,0.00,,,0.01,0,Wunderground v.1.15,2013-01-13 02:54:00,
2013-01-12 21:59:00,43.9,43.1,30.15,ESE,113,0.0,6.0,97,0.00,,,0.01,0,Wunderground v.1.15,2013-01-13 02:59:00,
2013-01-12 22:04:00,43.8,43.0,30.15,ESE,113,0.0,6.0,97,0.00,,,0.01,0,Wunderground v.1.15,2013-01-13 03:04:00,
2013-01-12 22:14:00,43.6,42.8,30.14,ESE,113,0.0,6.0,97,0.00,,,0.01,0,Wunderground v.1.15,2013-01-13 03:14:00,
2013-01-12 22:19:00,43.6,42.8,30.15,ESE,113,0.0,6.0,97,0.00,,,0.01,0,Wunderground v.1.15,2013-01-13 03:19:00,
2013-01-12 22:29:00,43.5,42.7,30.15,ESE,113,0.0,6.0,97,0.00,,,0.01,0,Wunderground v.1.15,2013-01-13 03:29:00,
2013-01-12 22:34:00,43.4,42.6,30.16,ESE,113,0.0,6.0,97,0.00,,,0.01,0,Wunderground v.1.15,2013-01-13 03:34:00,
2013-01-12 22:44:00,43.4,42.6,30.16,ESE,113,0.0,6.0,97,0.00,,,0.01,0,Wunderground v.1.15,2013-01-13 03:44:00,
2013-01-12 22:49:00,43.3,42.5,30.16,ESE,113,0.0,6.0,97,0.00,,,0.01,0,Wunderground v.1.15,2013-01-13 03:49:00,
2013-01-12 22:54:00,43.3,42.5,30.16,ESE,113,0.0,6.0,97,0.00,,,0.01,0,Wunderground v.1.15,2013-01-13 03:54:00,
2013-01-12 23:04:00,43.3,42.5,30.16,ESE,113,0.0,6.0,97,0.00,,,0.01,0,Wunderground v.1.15,2013-01-13 04:04:00,
2013-01-12 23:09:00,43.2,42.4,30.16,ESE,113,0.0,6.0,97,0.00,,,0.01,0,Wunderground v.1.15,2013-01-13 04:09:00,
2013-01-12 23:19:00,43.2,42.4,30.17,ESE,113,0.0,6.0,97,0.00,,,0.01,0,Wunderground v.1.15,2013-01-13 04:19:00,
2013-01-12 23:24:00,43.2,42.4,30.16,ESE,113,0.0,6.0,97,0.00,,,0.01,0,Wunderground v.1.15,2013-01-13 04:24:00,
2013-01-12 23:29:00,43.2,42.4,30.17,ESE,113,0.0,6.0,97,0.00,,,0.01,0,Wunderground v.1.15,2013-01-13 04:29:00,
2013-01-12 23:39:00,43.2,42.7,30.17,ESE,113,0.0,6.0,98,0.00,,,0.01,0,Wunderground v.1.15,2013-01-13 04:39:00,
2013-01-12 23:49:00,43.2,42.7,30.17,ESE,113,0.0,6.0,98,0.00,,,0.01,0,Wunderground v.1.15,2013-01-13 04:49:00,
2013-01-12 23:59:00,43.2,42.7,30.17,ESE,113,0.0,6.0,98,0.00,,,0.01,0,Wunderground v.1.15,2013-01-13 04:59:00,